Starlink 32400

operational
NORAD ID: 61669 Int'l Des: 2024-193 Owner: SPXS Country: US Constellation: starlink
LEOCIRCULAR

关于 Starlink 32400

正在加载描述...

实时位置

正在加载3D地球...

即将过境

高度历史

Altitude vs Time

uPlot chart will show altitude changes over time

两行轨道根数

1 61669U 24193J 25259.07543679 -.00000472 00000-0 -38146-5 0 9993
2 61669 53.1582 179.8572 0001207 84.4815 275.6324 15.30185755 49825
Epoch: Sep 16, 2025 • Age: 12 hours

当前状态

高度 475.2 km
速度 7.63 km/s
星下点 15.85°N, 147.44°E
发射日期 Oct 26, 2024
运行时间 0.8 years
类型 internet

技术详情

分类 Payload
质量 730.00 kg
干质量 700.00 kg
总质量 730.00 kg
长度 0.30 m
直径 4.10 m
跨度 29.00 m
形状 Box + pan
制造商 SPXS
平台类型 Starlink V2M
阶段状态 In Orbit
所有者/国家 SPXS/US

大型星座

Loading constellations...